GW6175 Weather Reports


time (UTC)temp
C
wind
direction
speed
KPH
gust
KPH
rain 1hr
cm
rain 24hr
cm
rain mn
cm
humidity
%
barometer
mb
20260506092017 12 0.0 0.0 0.00 0.00 0.00 49 873.2
20260506091017 13 0.0 0.0 0.00 0.00 0.00 49 873.1
20260506090017 13 0.0 0.0 0.00 0.00 0.00 50 873.1
20260506085018 13 0.0 0.0 0.00 0.00 0.00 50 873.0
20260506084016 13 0.0 0.0 0.00 0.00 0.00 49 873.1
20260506083017 13 0.0 0.0 0.00 0.00 0.00 47 873.1
20260506082017 13 0.0 0.0 0.00 0.00 0.00 47 873.0
20260506081016 13 0.0 0.0 0.00 0.00 0.00 50 873.0
20260506073016 12 0.0 0.0 0.00 0.00 0.00 51 872.8
20260506072016 12 0.0 0.0 0.00 0.00 0.00 52 872.8
20260506071016 13 0.0 0.0 0.00 0.00 0.00 52 872.7
20260506062038 13 0.0 0.0 0.00 0.00 0.00 51 872.3
20260506061016 13 0.0 0.0 0.00 0.00 0.00 50 872.2
20260506051016 12 0.0 0.0 0.00 0.00 0.00 51 871.8
20260506045017 13 0.0 0.0 0.00 0.00 0.00 47 871.6
20260506044016 14 0.0 0.0 0.00 0.00 0.00 46 871.4
20260506043016 15 0.0 0.0 0.00 0.00 0.00 45 871.3
20260506042016 15 0.0 0.0 0.00 0.00 0.00 43 871.1
20260506041036 15 0.0 0.0 0.00 0.00 0.00 43 870.9
20260506040016 15 0.0 0.0 0.00 0.00 0.00 44 870.7
20260506035036 15 0.0 0.0 0.00 0.00 0.00 45 870.6
20260506034017 15 0.0 0.0 0.00 0.00 0.00 44 870.5
20260506033037 15 0.0 0.0 0.00 0.00 0.00 45 870.3
20260506032017 15 0.0 0.0 0.00 0.00 0.00 44 870.2
20260506031015 16 0.0 0.0 0.00 0.00 0.00 44 870.3
20260506030016 16 0.0 0.0 0.00 0.00 0.00 43 870.1
20260506025035 16 0.0 0.0 0.00 0.00 0.00 43 870.0
20260506024016 16 0.0 0.0 0.00 0.00 0.00 42 869.9
20260506023035 17 0.0 0.0 0.00 0.00 0.00 42 869.8
20260506022015 17 0.0 0.0 0.00 0.00 0.00 41 869.8
20260506021015 17 0.0 0.0 0.00 0.00 0.00 40 869.7
20260506020015 18 0.0 0.0 0.00 0.00 0.00 38 869.6
20260506015017 18 0.0 0.0 0.00 0.00 0.00 37 869.6
20260506014017 18 0.0 0.0 0.00 0.00 0.00 36 869.7
20260506013018 19 0.0 0.0 0.00 0.00 0.00 35 869.4
20260506012019 20 0.0 0.0 0.00 0.00 0.00 34 869.4
20260506011017 20 0.0 0.0 0.00 0.00 0.00 33 869.5
20260506010017 20 0.0 0.0 0.00 0.00 0.00 32 869.2
20260506005019 20 0.0 0.0 0.00 0.00 0.00 31 869.2
20260506004039 20 0.0 0.0 0.00 0.00 0.00 33 869.2
20260506003019 20 0.0 0.0 0.00 0.00 0.00 32 869.2
20260506002018 21 0.0 0.0 0.00 0.00 0.00 31 868.9
20260506001017 21 0.0 0.0 0.00 0.00 0.00 27 868.7
20260506000057 21 0.0 0.0 0.00 0.00 0.00 26 868.6
20260505235015 22 0.0 0.0 0.00 0.00 0.00 24 868.6
20260505234016 22 0.0 0.0 0.00 0.00 0.00 25 868.4
20260505233036 23 0.0 0.0 0.00 0.00 0.00 25 868.4
20260505232036 23 0.0 0.0 0.00 0.00 0.00 25 868.0
20260505231015 23 0.0 0.0 0.00 0.00 0.00 24 868.1
20260505230039 22 0.0 0.0 0.00 0.00 0.00 24 868.2
20260505225017 22 0.0 0.0 0.00 0.00 0.00 24 868.1
20260505224017 23 0.0 0.0 0.00 0.00 0.00 23 868.2
20260505223018 23 0.0 0.0 0.00 0.00 0.00 23 868.4
20260505222017 23 0.0 0.0 0.00 0.00 0.00 24 868.3
20260505221017 23 0.0 0.0 0.00 0.00 0.00 23 868.3
20260505220017 23 0.0 0.0 0.00 0.00 0.00 24 868.4
20260505215017 23 0.0 0.0 0.00 0.00 0.00 26 868.5
20260505214017 22 0.0 0.0 0.00 0.00 0.00 26 868.5
20260505213017 22 0.0 0.0 0.00 0.00 0.00 26 868.4
20260505212017 23 0.0 0.0 0.00 0.00 0.00 25 868.8
20260505211017 23 0.0 0.0 0.00 0.00 0.00 26 868.9
20260505210017 23 0.0 0.0 0.00 0.00 0.00 27 869.2
20260505205017 23 0.0 0.0 0.00 0.00 0.00 27 869.4
20260505204017 22 0.0 0.0 0.00 0.00 0.00 29 869.4
20260505203019 22 0.0 0.0 0.00 0.00 0.00 29 869.7
20260505202017 22 0.0 0.0 0.00 0.00 0.00 30 869.7
20260505201017 22 0.0 0.0 0.00 0.00 0.00 30 869.6
20260505200017 22 0.0 0.0 0.00 0.00 0.00 33 869.8
20260505195017 22 0.0 0.0 0.00 0.00 0.00 31 869.9
20260505194019 22 0.0 0.0 0.00 0.00 0.00 34 869.9
20260505193017 21 0.0 0.0 0.00 0.00 0.00 35 870.4
20260505192017 21 0.0 0.0 0.00 0.00 0.00 36 870.4
20260505191017 20 0.0 0.0 0.00 0.00 0.00 37 870.3
20260505190058 20 0.0 0.0 0.00 0.00 0.00 38 870.6
20260505185017 20 0.0 0.0 0.00 0.00 0.00 39 870.6
20260505184016 20 0.0 0.0 0.00 0.00 0.00 41 870.8
20260505183016 20 0.0 0.0 0.00 0.00 0.00 41 870.8
20260505182016 19 0.0 0.0 0.00 0.00 0.00 42 870.9
20260505181038 20 0.0 0.0 0.00 0.00 0.00 41 870.9
20260505180017 20 0.0 0.0 0.00 0.00 0.00 41 871.0
20260505175016 20 0.0 0.0 0.00 0.00 0.00 41 871.0
20260505174016 19 0.0 0.0 0.00 0.00 0.00 43 871.2
20260505173016 18 0.0 0.0 0.00 0.00 0.00 43 871.2
20260505172016 18 0.0 0.0 0.00 0.00 0.00 42 871.3
20260505171016 19 0.0 0.0 0.00 0.00 0.00 40 871.3
20260505170016 18 0.0 0.0 0.00 0.00 0.00 42 871.2
20260505165016 18 0.0 0.0 0.00 0.00 0.00 43 871.5
20260505164016 17 0.0 0.0 0.00 0.00 0.00 44 871.3
20260505163016 16 0.0 0.0 0.00 0.00 0.00 46 871.3
20260505162016 16 0.0 0.0 0.00 0.00 0.00 46 871.6
20260505161016 16 0.0 0.0 0.00 0.00 0.00 45 871.5
20260505153016 16 0.0 0.0 0.00 0.00 0.00 46 871.2
20260505152017 16 0.0 0.0 0.00 0.00 0.00 47 871.2
20260505151016 16 0.0 0.0 0.00 0.00 0.00 47 871.4
20260505125015 15 0.0 0.0 0.00 0.00 0.00 48 871.7
20260505124016 15 0.0 0.0 0.00 0.00 0.00 47 871.6
20260505123015 15 0.0 0.0 0.00 0.00 0.00 47 871.5
20260505122015 15 0.0 0.0 0.00 0.00 0.00 47 871.5
20260505121015 15 0.0 0.0 0.00 0.00 0.00 46 871.4
20260505120017 16 0.0 0.0 0.00 0.00 0.00 44 871.2
20260505115017 16 0.0 0.0 0.00 0.00 0.00 44 871.2
20260505114039 16 0.0 0.0 0.00 0.00 0.00 45 871.3
20260505113017 16 0.0 0.0 0.00 0.00 0.00 43 871.2
20260505112017 16 0.0 0.0 0.00 0.00 0.00 44 871.2
20260505111017 15 0.0 0.0 0.00 0.00 0.00 46 871.3
20260505102037 16 0.0 0.0 0.00 0.00 0.00 46 871.5
20260505101017 16 0.0 0.0 0.00 0.00 0.00 46 871.5
20260505100017 16 0.0 0.0 0.00 0.00 0.00 46 871.4
20260505095017 16 0.0 0.0 0.00 0.00 0.00 45 871.5
20260505094017 16 0.0 0.0 0.00 0.00 0.00 45 871.3
20260505093017 16 0.0 0.0 0.00 0.00 0.00 45 871.3